FENGYUN 1C DEB, 30862

Orbit data source: Space-Track

FENGYUN 1C DEB, 30862 is space debris in SSO originally from a launch on Mon, 10 May 1999 UTC launched from the Taiyaun Space Center, China (TSC). Fengyun 1C debris stems from the Chinese weather satellite Fengyun-1C, which was intentionally destroyed by a Chinese anti-satellite missile in 2007. This event dramatically increased the amount of space debris, with thousands of trackable fragments posing hazards to satellites and human spaceflight. The Fengyun 1C debris cloud has become a focal point in discussions about space sustainability and the need for international regulations to prevent the creation of new debris.

Loading next visibility...
Identifier
30862, 1999-025AWY
Orbit
SSO
Country
Flag of CNCN / PRC
Related business
Manufacturer
Unknown
Mission
Spacecraft
Bus & Motor
Unknown
Mass
Unknown
Launch date (UTC)
1999-05-10 (27 years ago)
Launch vehicle
Unknown
Launch site
Taiyaun Space Center, China (TSC)
Object type
Payload
Rocket body
Debris
Shape & HBR
Unknown shape, 0.1 m
Radar Cross Section
Small (<0.1 m²)

Expand to show TLE details & history
Last TLE update: 4 days ago

TLE from 4 days ago
0 FENGYUN 1C DEB
1 30862U 99025AWY 26260.81269127  .00006012  00000-0  16055-2 0  9994
2 30862  98.9574  12.0696 0046476  51.8194 103.6990 14.48116077  7253
Epoch: 2026-09-17T19:30Z
TLE epoch observation values (Epoch: 2026-09-17T19:30:16.525Z)
Latitude
23.67802°
Longitude
-93.30163°
Altitude
742.669 km
Speed
7.481 km/s
True Right ascension
13h 04m 02s
True Declination
23° 33' 06"
Sunlit
Object was in daylight at epoch
Visualization orbit readout
Latitude
Unknown
Longitude
Unknown
Altitude
Unknown
Speed
Unknown
Apparent Right ascension
Unknown
Apparent Declination
Unknown
Sunlit
N/A
Visualization observer readout
Local Sidereal Time
03:11:19
Azimuth
Unknown
Elevation
Unknown
Doppler factor
Unknown
Orbital elements
Apogee altitude
761.972 km
Perigee altitude
695.911 km
Semi-major axis
7,107.078 km
Eccentricity
0.00465
Inclination
98.9574°
RAAN
12.0696°
Arg. of periapsis
51.8194°
True anomaly
104.21571°
Mean anomaly
103.699°
Eccentric anomaly
103.95743°
Mean motion
3.62248 °/min
Orbital period
99.38 mins
BSTAR
0.0016055
Loading maneuver chart data...
Computing Atmospheric mass density...

Documentation

Showing up to 5 results
|